{"data":{"norad_id":62985,"epoch":"2026-09-21T00:39:10.210464Z","epoch_age_seconds":119788,"freshness":"FRESH","line1":"1 62985U 25031E   26264.02720151  .00115358  00000+0  88906-3 0  9995","line2":"2 62985  42.9977 264.0546 0001519 270.4489  89.6205 15.70867228 93465","mean_motion":15.70867228,"eccentricity":0.0001519,"inclination_deg":42.9977,"raan_deg":264.0546,"arg_perigee_deg":270.4489,"mean_anomaly_deg":89.6205,"bstar":0.00088906,"rev_number":9346,"period_min":91.669109542337,"perigee_km":355.3942611838,"apogee_km":357.4402187619,"semimajor_km":6734.5542399729,"source":"CELESTRAK","updated_at":"2026-09-22T09:00:49.717052Z"}}